Погода в Дербенте

Погода в Дербенте : погода сейчас, прогноз погоды и архив. Всё, что Вы хотите узнать о погоде в Дербенте!

Поиск расширенной информации на нашем сайте:

Другие новости

Новости СМИ2

Главная страница сайта

Новости сайта

03.07.2017

Напоминаем, что на нашем специализированном сайте Метеоцентр.Азия вы можете получить высокодетализированные автоматические прогнозы погоды по пунктам России, СНГ и мира в авиационном формате (включающие направление и скорость ветра, видимость, явления погоды, количество и форму облачности, нижнюю и верхнюю границу облачности).

Рекомендуем: Смотрите описание зеркало с подсветкой на сайте.

Погода в Дербенте - сегодня

Время (UTC), дата Ветер
(°,м/с) 
Видим.   Явления Облачность Т
(°С)
Тd
(°С)
f(%) Тe
(°С)
Pmin
(гПа)
dP
(гПа)
Po
(мм)
O2
(г/м3)
Тmin Tmax R s Состояние
почвы
15 17.10.17 190 (Ю) 10 км    8/8 300 м кучево-дожд. 
[Cb cap]
+15 +5.8 54 +16  1019.4  1.1  766  292    +17.6       
18 17.10.17 180 (Ю) 4000 м  слаб. ливневой дождь  10/10 300 м кучево-дожд. 
[Cb cap]
+12.8 +7.9 72 +13  1020.9  1.5  767  294           
21 17.10.17 220 (ЮЗ) 10 км  {ливн. осадки}  10/10 600 м 
[Sc]
+14.3 +5.2 54 +16  1019.4  -1.5  766  293           
00 18.10.17 250 (З) 10 км  {ливн. осадки}  10/10 600 м 
[Sc]
+12.1 +5.8 65 +13  1018.9  -0.5  766  295           
03 18.10.17 250 (З) 10 км    10/10 300 м кучево-дожд. 
[Cb cap]
+14.6 +8.1 65 +16  1021.7  2.8  768  292  +11.9    0.3    влажная 
06 18.10.17 070 (В) 20000 м    9/9 300 м кучево-дожд. 
[Cb cap]
+15.8 +10.5 71 +18  1024.4  2.6  770  291           
09 18.10.17 320 (СЗ) 20000 м    10/10 600 м 
[Sc]
+15.9 +10 68 +18  1025.2  0.8  771  292           
12 18.10.17 360 (С) 20000 м    9/5 600 м средняя 
[Sc|Ac trans]
+17.8 +10.2 61 +19  1025  0.1  770  290           
15 18.10.17 тихо ()   10 км    10/10 600 м 
[Sc]
+15.4 +10.5 73 +17  1025.6  0.6  771  292    +18.2       
18 18.10.17 170 (Ю) 10 км    9/5 600 м средняя 
[Sc|Ac trans]
+14.1 +9.5 74 +15  1025.7  0.1  771  294           
21 18.10.17 200 (Ю) 10 км    9/9 600 м 
[Sc]
+12.8 +9.2 79 +14  1025.1  -0.6  770  295           
00 19.10.17 170 (Ю) 10 км    4/0 средняя 
[Ac trans]
+10 +7.9 87 +11  1023.9  -1.1  770  298           
03 19.10.17 180 (Ю) 10 км    ясно 
+13.1 +9.5 79 +14  1023.7  -0.2  769  294  +10        влажная 
06 19.10.17 100 (В) 20000 м    3/3 600 м 
[Cu hum]
+18.3 +11.4 64 +22  1023.8  0.1  770  288           
09 19.10.17 310 (СЗ) 20000 м    4/4 600 м 
[Cu hum]
+20.3 +12.3 60 +24  1022.4  -1.5  768  286           
12 19.10.17 360 (С) 20000 м    ясно 
+18.8 +12.9 69 +24  1020.6  -1.8  767  287           
15 19.10.17 300 (СЗ) 10 км    ясно 
+15.6 +12.1 80 +20  1020.4  -0.1  767  290    +20.5       
18 19.10.17 280 (З) 10 км    8/8 600 м 
[Sc]
+15 +12.1 83 +20  1020.4  767  291           
21 19.10.17 310 (СЗ) 10 км    8/0 средняя 
[Ac trans]
+14.4 +11.6 83 +19  1019.5  -0.9  766  291           
00 20.10.17 250 (З) 10 км    8/0 средняя 
[Ac trans]
+11.8 +9.9 88 +14  1019.2  -0.3  766  294           
03 20.10.17 270 (З) 10 км    8/0 средняя 
[Ac trans]
+11.3 +8.7 84 +12  1019.5  0.3  766  295  +11.1        влажная 
06 20.10.17 330 (СЗ) 20000 м    ясно 
+18 +9.5 58 +19  1020.2  0.6  767  288  +11         
09 20.10.17 020 (С) 20000 м    ясно 
+18.6 +12.4 67 +24  1019.2  -0.9  766  287           
12 20.10.17 120 (ЮВ) 20000 м    ясно 
+17.5 +12 70 +21  1018.9  -0.3  766  288           
15 20.10.17 190 (Ю) 10 км    ясно 
+15 +11 77 +18  1019.1  0.3  766  291    +20       
Время (UTC), дата Ветер
(°,м/с) 
Видим.   Явления Облачность Т
(°С)
Тd
(°С)
f(%) Тe
(°С)
Pmin
(гПа)
dP
(гПа)
Po
(мм)
O2
(г/м3)
Тmin Tmax R s Состояние
почвы

Для получения пояснительной информации подведите курсор к названию столбца.

ПОГОДА в Дербенте - архив

Всё, что Вы хотите узнать о погоде в Дербенте - удобно и подробно!

Выберите нужную дату (начиная с 1 января 2015* года) и нажмите кнопку "Найти".
Будут отображены архивные сводки погоды по пункту Дербент, начиная с указанной даты.


Отображать данные в формате CSV (для использования в таблицах Excel)


Внимание! Наш архив погоды предназначен исключительно для личного некоммерческого использования в познавательных целях. Если Вам необходимы официальные справки о состоянии погоды (для производственных, юридических, коммерческих и т.п. целей), обращайтесь в органы Росгидромета.

*Примечание: данная дата относится к архиву по метеостанциям СССР (Россия, СНГ, Балтия).
Архив по метеостанциям Зарубежной Европы и Азии (кроме Китая) хранится 10 дней, по другим регионам земного шара (Китай, Африка, Америка, Австралия, Океания) - 1 день.

Дербент - район местоположения метеостанции


Название, широта, долгота, высота метеостанции:
Дербент 42.1°ш. 48.3°д. -19 м над ур. моря [Российская Федерация]

Дополнительная информация

В oтличие oт бoльшинства пoгoдных сайтoв мы публикуем пoдрoбную метеoинфoрмацию в детальнoм прoфессиoнальнoм фoрмате.

Характеристики температуры и влажнoсти вoздуха измеряются на высoте 2 м в тени вдали oт зданий и деревьев.
Скoрoсть ветра измеряется на высoте 10 м (на урoвне рoста челoвека скoрoсть ветра ниже в 1.5-2 раза). Если метеoстанция нахoдится в гoрoде или в лесу, тo скoрoсть ветра занижена на 2-4 м/с пo сравнению с oткрытым местoм. Скoрoсть ветра над акватoриями крупных рек и oзёр, а также на вершинах хoлмoв на 2-5 м/с выше, чем в oбычных услoвиях.
Атмoсфернoе давление в разных тoчках местнoсти мoжет значительнo oтличаться oт давления на метеoстанции, в зависимoсти oт услoвий рельефа (при пoдъёме на 10 м давление пoнижается примернo на 1 мм рт.ст.).